DW7628 Weather Reports


Display with metric or nautical units.
time (UTC)temp
F
wind
direction
speed
MPH
gust
MPH
rain 1hr
in
rain 24hr
in
rain mn
in
humidity
%
barometer
mb
20260509204306 62 5 0.0 0.0 0.00 0.00 0.00 79 1012.4
20260509203806 62 111 0.0 0.0 0.00 0.00 0.00 80 1012.3
20260509203306 63 0 0.0 0.0 0.00 0.00 0.00 79 1012.2
20260509202806 63 95 0.0 0.0 0.00 0.00 0.00 79 1012.1
20260509202307 63 52 0.0 0.0 0.00 0.00 0.00 79 1012.2
20260509201806 63 347 0.0 0.0 0.00 0.00 0.00 79 1012.2
20260509201305 63 183 0.0 0.0 0.00 0.00 0.00 79 1012.2
20260509200306 63 134 0.0 0.0 0.00 0.00 0.00 79 1012.3
20260509195806 63 1 0.0 0.0 0.00 0.00 0.00 78 1012.4
20260509195306 63 40 0.0 0.0 0.00 0.00 0.00 78 1012.5
20260509194805 64 114 0.0 0.0 0.00 0.00 0.00 78 1012.4
20260509194306 64 103 0.0 0.0 0.00 0.00 0.00 78 1012.3
20260509193805 64 7 0.0 0.0 0.00 0.00 0.00 77 1012.4
20260509193306 64 2 0.0 0.0 0.00 0.00 0.00 77 1012.6
20260509192306 65 90 0.0 0.0 0.00 0.00 0.00 77 1012.5
20260509191805 65 8 0.0 0.0 0.00 0.00 0.00 76 1012.6
20260509191306 65 348 0.0 0.0 0.00 0.00 0.00 76 1012.6
20260509190806 66 135 0.0 0.0 0.00 0.00 0.00 75 1012.5
20260509190305 66 199 0.0 0.0 0.00 0.00 0.00 75 1012.7
20260509185806 66 346 0.0 0.0 0.00 0.00 0.00 75 1012.7
20260509185306 66 160 0.0 0.0 0.00 0.00 0.00 75 1012.5
20260509184806 67 157 0.0 0.0 0.00 0.00 0.00 75 1012.5
20260509184305 67 352 0.0 0.0 0.00 0.00 0.00 76 1012.7
20260509183306 67 162 0.0 0.0 0.00 0.00 0.00 76 1012.8
20260509182307 67 141 0.0 0.0 0.00 0.00 0.00 77 1012.5
20260509181805 67 168 0.0 0.0 0.00 0.00 0.00 77 1012.3
20260509181306 67 122 0.0 0.0 0.00 0.00 0.00 77 1012.5
20260509180805 67 92 0.0 0.0 0.00 0.00 0.00 78 1012.5
20260509180305 67 85 0.0 0.0 0.00 0.00 0.00 78 1012.2
20260509175805 67 330 0.0 0.0 0.00 0.00 0.00 78 1011.8
20260509175307 68 11 0.0 0.0 0.00 0.00 0.00 79 1011.4
20260509174805 68 33 0.0 0.0 0.00 0.00 0.00 80 1011.9
20260509174306 68 90 0.0 0.0 0.00 0.00 0.00 78 1012.8
20260509173805 68 76 0.0 0.0 0.00 0.00 0.00 76 1013.1
20260509173305 69 258 0.0 0.0 0.00 0.00 0.00 73 1013.4
20260509172806 69 152 0.0 0.0 0.00 0.00 0.00 71 1013.7
20260509172306 70 236 0.0 0.0 0.00 0.00 0.00 71 1013.9
20260509171805 70 256 0.0 0.0 0.00 0.00 0.00 71 1013.6
20260509171306 70 250 0.0 0.0 0.00 0.00 0.00 71 1013.1
20260509170805 70 135 0.0 0.0 0.00 0.00 0.00 70 1012.6
20260509170305 70 242 0.0 0.0 0.00 0.00 0.00 70 1012.6
20260509165806 70 77 0.0 0.0 0.00 0.00 0.00 70 1012.4
20260509165307 70 92 0.0 0.0 0.00 0.00 0.00 70 1012.4
20260509164305 70 90 0.0 0.0 0.00 0.00 0.00 67 1012.4
20260509163305 70 224 0.0 0.0 0.00 0.00 0.00 67 1013.1
20260509162805 71 124 0.0 0.0 0.00 0.00 0.00 66 1013.0
20260509162307 71 156 0.0 0.0 0.00 0.00 0.00 66 1012.9
20260509160806 72 190 0.0 0.0 0.00 0.00 0.00 65 1012.9
20260509160305 72 208 0.0 0.0 0.00 0.00 0.00 65 1012.9
20260509155805 72 167 0.0 0.0 0.00 0.00 0.00 64 1012.8
20260509155306 73 94 0.0 0.0 0.00 0.00 0.00 64 1012.7
20260509154805 73 154 0.0 0.0 0.00 0.00 0.00 64 1012.6
20260509154305 73 193 0.0 0.0 0.00 0.00 0.00 64 1012.5
20260509153306 74 253 0.0 0.0 0.00 0.00 0.00 62 1012.3
20260509152805 75 255 0.0 0.0 0.00 0.00 0.00 61 1012.3
20260509152307 74 262 0.0 0.0 0.00 0.00 0.00 61 1012.4
20260509151305 75 282 0.0 0.0 0.00 0.00 0.00 59 1012.2
20260509150805 76 268 0.0 0.0 0.00 0.00 0.00 58 1012.2
20260509150305 76 198 0.0 0.0 0.00 0.00 0.00 57 1012.2
20260509145306 77 144 0.0 0.0 0.00 0.00 0.00 56 1012.4
20260509144305 78 157 0.0 0.0 0.00 0.00 0.00 55 1012.5
20260509143805 78 220 0.0 0.0 0.00 0.00 0.00 53 1012.6
20260509143305 78 249 0.0 0.0 0.00 0.00 0.00 53 1012.7
20260509142805 78 268 0.0 0.0 0.00 0.00 0.00 53 1012.6
20260509142307 78 212 0.0 0.0 0.00 0.00 0.00 53 1012.6
20260509141805 78 256 0.0 0.0 0.00 0.00 0.00 53 1012.8
20260509141305 78 159 0.0 0.0 0.00 0.00 0.00 53 1012.7
20260509140805 78 262 0.0 0.0 0.00 0.00 0.00 53 1012.7
20260509140305 78 245 0.0 0.0 0.00 0.00 0.00 53 1012.7
20260509135805 78 261 0.0 0.0 0.00 0.00 0.00 53 1012.7
20260509135306 78 189 0.0 0.0 0.00 0.00 0.00 53 1012.7
20260509134805 79 339 0.0 0.0 0.00 0.00 0.00 52 1012.8
20260509134305 79 219 0.0 0.0 0.00 0.00 0.00 52 1012.8
20260509133805 79 77 0.0 0.0 0.00 0.00 0.00 52 1012.7
20260509132805 79 288 0.0 0.0 0.00 0.00 0.00 50 1012.8
20260509131805 80 262 0.0 0.0 0.00 0.00 0.00 49 1012.9
20260509130305 79 253 0.0 0.0 0.00 0.00 0.00 49 1013.0
20260509125805 78 234 0.0 0.0 0.00 0.00 0.00 50 1013.0
20260509125307 78 234 0.0 0.0 0.00 0.00 0.00 50 1013.1
20260509124806 78 260 0.0 0.0 0.00 0.00 0.00 51 1013.2
20260509124305 77 125 0.0 0.0 0.00 0.00 0.00 52 1013.3
20260509123806 77 157 0.0 0.0 0.00 0.00 0.00 52 1013.2
20260509123305 76 133 0.0 0.0 0.00 0.00 0.00 54 1013.3
20260509122805 76 76 0.0 0.0 0.00 0.00 0.00 53 1013.3
20260509122306 76 198 0.0 0.0 0.00 0.00 0.00 54 1013.3
20260509121805 76 132 0.0 0.0 0.00 0.00 0.00 54 1013.4
20260509121305 76 287 0.0 0.0 0.00 0.00 0.00 55 1013.4
20260509120805 76 241 0.0 0.0 0.00 0.00 0.00 54 1013.5
20260509120305 76 218 0.0 0.0 0.00 0.00 0.00 54 1013.5
20260509115805 76 256 0.0 0.0 0.00 0.00 0.00 55 1013.5
20260509115307 76 81 0.0 0.0 0.00 0.00 0.00 54 1013.5
20260509114805 76 262 0.0 0.0 0.00 0.00 0.00 53 1013.5
20260509114304 77 249 0.0 0.0 0.00 0.00 0.00 52 1013.5
20260509113805 76 86 0.0 0.0 0.00 0.00 0.00 50 1013.5
20260509113305 77 87 0.0 0.0 0.00 0.00 0.00 47 1013.4
20260509112307 77 84 0.0 0.0 0.00 0.00 0.00 45 1013.6
20260509111805 77 235 0.0 0.0 0.00 0.00 0.00 44 1013.7
20260509111305 77 265 0.0 0.0 0.00 0.00 0.00 44 1013.7
20260509110804 77 145 0.0 0.0 0.00 0.00 0.00 44 1013.8
20260509110305 77 100 0.0 0.0 0.00 0.00 0.00 44 1013.9
20260509105805 77 274 0.0 0.0 0.00 0.00 0.00 44 1013.8
20260509105306 77 100 0.0 0.0 0.00 0.00 0.00 44 1013.8
20260509104805 77 150 0.0 0.0 0.00 0.00 0.00 42 1013.7
20260509103305 78 146 0.0 0.0 0.00 0.00 0.00 39 1013.8
20260509102806 77 228 0.0 0.0 0.00 0.00 0.00 40 1013.8
20260509102306 76 314 0.0 0.0 0.00 0.00 0.00 41 1013.8
20260509101805 76 203 0.0 0.0 0.00 0.00 0.00 41 1013.8
20260509101305 76 119 0.0 0.0 0.00 0.00 0.00 41 1013.7
20260509100304 75 291 0.0 0.0 0.00 0.00 0.00 43 1013.8
20260509095805 75 56 0.0 0.0 0.00 0.00 0.00 46 1013.7
20260509095306 74 236 0.0 0.0 0.00 0.00 0.00 47 1013.7
20260509094805 74 350 0.0 0.0 0.00 0.00 0.00 47 1013.6
20260509094306 74 340 0.0 0.0 0.00 0.00 0.00 49 1013.5
20260509093304 74 212 0.0 0.0 0.00 0.00 0.00 50 1013.6
20260509092805 73 91 0.0 0.0 0.00 0.00 0.00 51 1013.6
20260509092306 73 113 0.0 0.0 0.00 0.00 0.00 51 1013.6
20260509091804 73 81 0.0 0.0 0.00 0.00 0.00 52 1013.5
20260509091304 72 84 0.0 0.0 0.00 0.00 0.00 54 1013.5
20260509090805 71 16 0.0 0.0 0.00 0.00 0.00 54 1013.5
20260509090304 72 21 0.0 0.0 0.00 0.00 0.00 53 1013.6
20260509085805 72 20 0.0 0.0 0.00 0.00 0.00 51 1013.5
20260509085306 72 144 0.0 0.0 0.00 0.00 0.00 52 1013.5
20260509084804 72 67 0.0 0.0 0.00 0.00 0.00 53 1013.4
20260509084305 72 124 0.0 0.0 0.00 0.00 0.00 53 1013.6
20260509083805 71 216 0.0 0.0 0.00 0.00 0.00 54 1013.6
20260509083305 71 87 0.0 0.0 0.00 0.00 0.00 54 1013.7
20260509082805 70 231 0.0 0.0 0.00 0.00 0.00 56 1013.7
20260509082307 69 17 0.0 0.0 0.00 0.00 0.00 57 1013.7
20260509081804 68 359 0.0 0.0 0.00 0.00 0.00 60 1013.6
20260509081304 69 29 0.0 0.0 0.00 0.00 0.00 60 1013.7
20260509080805 69 60 0.0 0.0 0.00 0.00 0.00 60 1013.8
20260509080304 69 142 0.0 0.0 0.00 0.00 0.00 60 1013.7
20260509075804 68 119 0.0 0.0 0.00 0.00 0.00 64 1013.6
20260509075306 67 52 0.0 0.0 0.00 0.00 0.00 63 1013.5
20260509074805 67 146 0.0 0.0 0.00 0.00 0.00 64 1013.5
20260509074304 67 117 0.0 0.0 0.00 0.00 0.00 65 1013.4
20260509073805 66 45 0.0 0.0 0.00 0.00 0.00 68 1013.5
20260509073305 66 49 0.0 0.0 0.00 0.00 0.00 66 1013.4
20260509072306 65 199 0.0 0.0 0.00 0.00 0.00 67 1013.3
20260509071805 65 39 0.0 0.0 0.00 0.00 0.00 67 1013.2
20260509071305 65 46 0.0 0.0 0.00 0.00 0.00 69 1013.3
20260509070804 64 0 0.0 0.0 0.00 0.00 0.00 67 1013.4
20260509070305 64 60 0.0 0.0 0.00 0.00 0.00 69 1013.5
20260509065804 65 94 0.0 0.0 0.00 0.00 0.00 69 1013.5
20260509065306 64 67 0.0 0.0 0.00 0.00 0.00 69 1013.5
20260509064805 64 67 0.0 0.0 0.00 0.00 0.00 69 1013.4
20260509064304 64 157 0.0 0.0 0.00 0.00 0.00 71 1013.5
20260509063804 63 169 0.0 0.0 0.00 0.00 0.00 73 1013.3
20260509063305 62 212 0.0 0.0 0.00 0.00 0.00 75 1013.3
20260509062306 61 177 0.0 0.0 0.00 0.00 0.00 76 1013.1
20260509061305 60 63 0.0 0.0 0.00 0.00 0.00 79 1013.3
20260509060804 59 32 0.0 0.0 0.00 0.00 0.00 79 1013.4
20260509060305 59 150 0.0 0.0 0.00 0.00 0.00 81 1013.4
20260509055804 58 59 0.0 0.0 0.00 0.00 0.00 82 1013.4
20260509055306 58 38 0.0 0.0 0.00 0.00 0.00 83 1013.3
20260509054804 57 268 0.0 0.0 0.00 0.00 0.00 86 1013.3
20260509054304 57 257 0.0 0.0 0.00 0.00 0.00 85 1013.3
20260509053304 57 82 0.0 0.0 0.00 0.00 0.00 85 1013.3
20260509052804 57 84 0.0 0.0 0.00 0.00 0.00 86 1013.2
20260509052307 57 170 0.0 0.0 0.00 0.00 0.00 86 1013.2
20260509051304 56 68 0.0 0.0 0.00 0.00 0.00 87 1013.0
20260509050805 56 39 0.0 0.0 0.00 0.00 0.00 88 1013.0
20260509045804 56 70 0.0 0.0 0.00 0.00 0.00 88 1013.0
20260509045306 56 235 0.0 0.0 0.00 0.00 0.00 88 1012.9
20260509044805 56 234 0.0 0.0 0.00 0.00 0.00 88 1013.0
20260509044304 55 234 0.0 0.0 0.00 0.00 0.00 89 1012.9
20260509043804 55 235 0.0 0.0 0.00 0.00 0.00 89 1012.9
20260509042804 55 43 0.0 0.0 0.00 0.00 0.00 89 1012.8
20260509042307 55 229 0.0 0.0 0.00 0.00 0.00 89 1012.8
20260509041804 55 241 0.0 0.0 0.00 0.00 0.00 90 1012.8
20260509041305 55 230 0.0 0.0 0.00 0.00 0.00 90 1012.7
20260509040804 55 227 0.0 0.0 0.00 0.00 0.00 90 1012.7
20260509040304 55 232 0.0 0.0 0.00 0.00 0.00 90 1012.7
20260509035804 55 234 0.0 0.0 0.00 0.00 0.00 90 1012.8
20260509035306 55 235 0.0 0.0 0.00 0.00 0.00 90 1012.8
20260509034304 55 162 0.0 0.0 0.00 0.00 0.00 90 1012.7
20260509033804 55 48 0.0 0.0 0.00 0.00 0.00 89 1012.7
20260509033304 55 85 0.0 0.0 0.00 0.00 0.00 89 1012.7
20260509032804 55 351 0.0 0.0 0.00 0.00 0.00 89 1012.6
20260509032306 55 42 0.0 0.0 0.00 0.00 0.00 89 1012.5
20260509031804 55 87 0.0 0.0 0.00 0.00 0.00 89 1012.5
20260509030804 56 59 0.0 0.0 0.00 0.00 0.00 89 1012.5
20260509030304 56 117 0.0 0.0 0.00 0.00 0.00 89 1012.5
20260509025804 55 94 0.0 0.0 0.00 0.00 0.00 89 1012.5
20260509025306 55 164 0.0 0.0 0.00 0.00 0.00 89 1012.5
20260509024804 55 229 0.0 0.0 0.00 0.00 0.00 90 1012.5
20260509024305 55 231 0.0 0.0 0.00 0.00 0.00 89 1012.5
20260509023804 55 226 0.0 0.0 0.00 0.00 0.00 90 1012.5
20260509023304 55 226 0.0 0.0 0.00 0.00 0.00 90 1012.5
20260509022805 55 224 0.0 0.0 0.00 0.00 0.00 89 1012.4
20260509022306 55 224 0.0 0.0 0.00 0.00 0.00 89 1012.4
20260509021804 56 224 0.0 0.0 0.00 0.00 0.00 89 1012.5
20260509021304 56 224 0.0 0.0 0.00 0.00 0.00 89 1012.5
20260509020804 56 224 0.0 0.0 0.00 0.00 0.00 89 1012.4
20260509015306 56 224 0.0 0.0 0.00 0.00 0.00 89 1012.4
20260509014803 56 224 0.0 0.0 0.00 0.00 0.00 89 1012.4
20260509014304 56 243 0.0 0.0 0.00 0.00 0.00 88 1012.3
20260509013804 56 58 0.0 0.0 0.00 0.00 0.00 88 1012.3
20260509012804 56 233 0.0 0.0 0.00 0.00 0.00 88 1012.2
20260509012307 56 232 0.0 0.0 0.00 0.00 0.00 88 1012.2
20260509011804 56 277 0.0 0.0 0.00 0.00 0.00 88 1012.2
20260509011304 56 278 0.0 0.0 0.00 0.00 0.00 88 1012.2
20260509010804 57 278 0.0 0.0 0.00 0.00 0.00 88 1012.3
20260509010304 56 15 0.0 0.0 0.00 0.00 0.00 89 1012.2
20260509005804 57 69 0.0 0.0 0.00 0.00 0.00 89 1012.3
20260509005306 57 69 0.0 0.0 0.00 0.00 0.00 89 1012.2
20260509004804 57 89 0.0 0.0 0.00 0.00 0.00 89 1012.3
20260509004304 57 94 0.0 0.0 0.00 0.00 0.00 89 1012.4
20260509003804 57 94 0.0 0.0 0.00 0.00 0.00 89 1012.3
20260509003304 57 149 0.0 0.0 0.00 0.00 0.00 89 1012.4
20260509002807 57 168 0.0 0.0 0.00 0.00 0.00 89 1012.4
20260509002307 57 161 0.0 0.0 0.00 0.00 0.00 89 1012.4
20260509001806 57 113 0.0 0.0 0.00 0.00 0.00 89 1012.4
20260509001307 57 62 0.0 0.0 0.00 0.00 0.00 88 1012.4
20260509000807 57 48 0.0 0.0 0.00 0.00 0.00 88 1012.4
20260509000306 57 46 0.0 0.0 0.00 0.00 0.00 88 1012.4
20260508235806 57 120 0.0 0.0 0.00 0.00 0.00 88 1012.3
20260508235306 57 49 0.0 0.0 0.00 0.00 0.00 88 1012.3
20260508234306 57 44 0.0 0.0 0.00 0.00 0.00 88 1012.4
20260508233806 57 40 0.0 0.0 0.00 0.00 0.00 88 1012.4
20260508233306 57 86 0.0 0.0 0.00 0.00 0.00 88 1012.4
20260508232307 58 99 0.0 0.0 0.00 0.00 0.00 87 1012.4
20260508231806 58 54 0.0 0.0 0.00 0.00 0.00 87 1012.5
20260508231306 58 83 0.0 0.0 0.00 0.00 0.00 87 1012.4
20260508230806 58 58 0.0 0.0 0.00 0.00 0.00 86 1012.4
20260508230306 58 86 0.0 0.0 0.00 0.00 0.00 86 1012.5
20260508225307 58 198 0.0 0.0 0.00 0.00 0.00 86 1012.4
20260508224306 58 98 0.0 0.0 0.00 0.00 0.00 86 1012.5
20260508223306 58 77 0.0 0.0 0.00 0.00 0.00 87 1012.5
20260508222806 58 117 0.0 0.0 0.00 0.00 0.00 87 1012.4
20260508221806 58 161 0.0 0.0 0.00 0.00 0.00 87 1012.3
20260508221306 58 117 0.0 0.0 0.00 0.00 0.00 87 1012.4
20260508220832 58 70 0.0 0.0 0.00 0.00 0.00 87 1012.5
20260508220306 58 95 0.0 0.0 0.00 0.00 0.00 86 1012.5
20260508215806 58 54 0.0 0.0 0.00 0.00 0.00 86 1012.4
20260508215306 59 32 0.0 0.0 0.00 0.00 0.00 86 1012.4
20260508214806 59 9 0.0 0.0 0.00 0.00 0.00 85 1012.5
20260508214307 59 48 0.0 0.0 0.00 0.00 0.00 85 1012.4
20260508213306 60 126 0.0 0.0 0.00 0.00 0.00 84 1012.3
20260508212806 60 43 0.0 0.0 0.00 0.00 0.00 84 1012.2
20260508212306 60 130 0.0 0.0 0.00 0.00 0.00 83 1012.2
20260508211807 60 54 0.0 0.0 0.00 0.00 0.00 83 1012.1
20260508210806 60 222 0.0 0.0 0.00 0.00 0.00 83 1012.0
20260508210306 61 82 0.0 0.0 0.00 0.00 0.00 82 1012.0
20260508205806 61 57 0.0 0.0 0.00 0.00 0.00 82 1012.0
20260508205306 61 42 0.0 0.0 0.00 0.00 0.00 82 1012.1